Showing default

SHIYAN 27D, 63602

Orbit data source: Space-Track

SHIYAN 27D, 63602 is a payload satellite in SSO that was launched on Fri, 18 Apr 2025 UTC via a CHANG ZHENG 6A launch vehicle from the Taiyaun Space Center, China (TSC). Payload-class satellites include a variety of spacecraft equipped with specific instruments for various scientific and technological missions. These include communications satellites like Starlink; space stations such as the ISS; scientific satellites like the Hubble; Earth observation satellites from companies like Planet Labs, Umbra, and HawkEye 360; GPS; miniature CubeSats for education and research; and military/defense satellites.

Loading next visibility...
Identifier
63602, 2025-078D
Orbit
SSO
Last TLE update
11 hours ago
Origin
Manufacturer
CAST
Mission
Operational spacecraft
Bus & Motor
SW27, Unknown motor
Mass
300 kg wet, ~300 kg dry
Launch date (UTC)
2025-04-18 (1 month ago)
Launch vehicle
CHANG ZHENG 6A
Launch site
Taiyaun Space Center, China (TSC)
Object type
Payload
Rocket body
Debris
Shape & HBR
Unknown
Radar Cross Section
Large (>1 m²)

Expand to show TLE details & history

TLE from 11 hours ago
0 SHIYAN 27D
1 63602U 25078D   25140.23257326  .00000021  00000-0  91199-4 0  9997
2 63602  99.6939 148.2614 0000957  93.5414 266.5834 13.57200364  4220
Epoch: 2025-05-20T05:34Z
TLE epoch observation values (Epoch: 2025-05-20T05:34:54.329Z)
Latitude
-0.00001°
Longitude
-173.59876°
Altitude
1,048.722 km
Speed
7.328 km/s
True Right ascension
09h 53m 02s
True Declination
0° 00' 00"
Sunlit
Object was in daylight at epoch
Visualization orbit readout
Latitude
50.25767°
Longitude
18.65658°
Altitude
1,053.232 km
Speed
7.33 km/s
Apparent Right ascension
18h 04m 58s
Apparent Declination
23° 28' 44"
Sunlit
Object is in daylight
Visualization observer readout
Local Sidereal Time
01:43:41
Azimuth
303.486° NW
Elevation
-2.183°
Doppler factor
1
Orbital elements
Apogee altitude
1,043.886 km
Perigee altitude
1,042.465 km
Semi-major axis
7,421.313 km
Eccentricity
0.0001
Inclination
99.6939°
RAAN
148.2614°
Arg. of periapsis
93.5414°
True anomaly
Unknown
Mean anomaly
266.5834°
Eccentric anomaly
Unknown
Mean motion
3.39486 °/min
Orbital period
106.04 mins
BSTAR
0.000091199
Loading maneuver chart data...
Loading SW <> Apogee altitude chart data...
Loading historical data...
Loading historical data...
Loading historical data...
Loading historical data...
Loading historical data...
Loading historical data...
Loading historical data...

SHIYAN 27D Visibility forecast

Observer location: undefined°, undefined°

Span
Click to sort rows by Start time (UTC) header in descending order
Start Az.
Max El. time (UTC)
Max El. Az.
Max El.
End time (UTC)
End Az.
10 mins2025-05-20 23:24:47.349Z121.819° SE2025-05-20 23:29:47.349Z60.456° ENE28.878°2025-05-20 23:34:47.349Z5.19° NNE
10 mins2025-05-21 01:09:47.349Z201.188° SSW2025-05-21 01:13:47.349Z256.46° W32.993°2025-05-21 01:19:47.349Z329.548° NNW
8 mins2025-05-21 12:17:47.349Z52.037° ENE2025-05-21 12:21:47.349Z101.001° ESE22.9°2025-05-21 12:25:47.349Z143.824° SSE
10 mins2025-05-21 14:01:47.349Z359.157° N2025-05-21 14:05:47.349Z303.855° NW38.07°2025-05-21 14:11:47.349Z218.399° SW
|